Home > Time Zones > World Clock > Weather > Norway > Moss > Past weeks

Flag for Norway Weather past 2 weeks in Moss, Norway

Now
34 °F

Fog.


Feels Like: 30 °F
Forecast: 31 / 39 °F
Wind: 5 mph from Southeast

Location: Rygge

Current Time: Mar 3, 2015 at 8:39:25 AM

Latest Report: Mar 3, 2015 at 7:50 AM


Visibility: 3 mi

Pressure: 29.45 "Hg

Humidity: 100%

Dew point: 34 °F

Location of MossLocation

Historic Weather in Moss — Graph

°F

Moss temperature yesterday

Maximum temperature yesterday: 41 °F (at 12:50 PM)
Minimum temperature yesterday: 36 °F (at 8:20 PM)
Average temperature yesterday: 38 °F

Past Weeks' High & Low Weather Summary

 TemperatureHumidityPressure
High45 °F (Feb 18, 7:20 AM)100% (Feb 16, 11:50 PM)30.39 "Hg (Feb 16, 11:50 PM)
Low25 °F (Feb 22, 2:20 AM)42% (Feb 22, 2:20 PM)29.00 "Hg (Feb 23, 12:50 PM)
Average37 °F90%29.59 "Hg
* Reported Feb 16 7:20 AM — Mar 3 7:20 AM, Moss, Weather by CustomWeather, © 2015

Note: Actual official high and low records may vary slightly from our data, if they occured in-between our weather recording intervals... More about our weather records

Advertising

Moss weather history for previous 24 hours

 ConditionsComfort  
Time TempWeatherWind HumidityBarometerVisibility
7:20 AM
Tue, Mar 3
34 °FFog.3 mph100%29.45 "Hg1 mi
6:50 AM34 °FPartly cloudy.5 mph100%29.45 "Hg2 mi
6:20 AM34 °FPartly cloudy.2 mph100%29.45 "Hg6 mi
5:50 AM34 °FMostly cloudy.3 mph100%29.42 "HgN/A
5:20 AM36 °FPartly cloudy.2 mph93%29.42 "HgN/A
4:50 AM36 °FLow clouds.3 mph93%29.42 "Hg4 mi
4:20 AM36 °FLow clouds.3 mph93%29.42 "HgN/A
3:50 AM36 °FOvercast.3 mph100%29.42 "HgN/A
3:20 AM36 °FPartly cloudy.3 mph100%29.42 "Hg4 mi
2:50 AM36 °FFog.5 mph93%29.39 "Hg3 mi
2:20 AM36 °FLow clouds.6 mph93%29.39 "Hg3 mi
1:50 AM36 °FMostly cloudy.3 mph93%29.39 "Hg5 mi
1:20 AM36 °FMostly cloudy.3 mph100%29.36 "HgN/A
12:50 AM36 °FMostly cloudy.3 mph100%29.36 "HgN/A
12:20 AM36 °FOvercast.1 mph100%29.36 "HgN/A
11:50 PM
Mon, Mar 2
36 °FMostly cloudy.5 mph100%29.36 "HgN/A
11:20 PM36 °FLow clouds.5 mph100%29.33 "HgN/A
10:50 PM36 °FPassing clouds.5 mph93%29.33 "HgN/A
10:20 PM37 °FPassing clouds.5 mph93%29.33 "HgN/A
9:50 PM37 °FPassing clouds.3 mph93%29.30 "HgN/A
9:20 PM36 °FPassing clouds.5 mph100%29.30 "HgN/A
8:50 PM36 °FPassing clouds.6 mph100%29.30 "HgN/A
8:20 PM36 °FPartly cloudy.6 mph93%29.30 "HgN/A
7:50 PM37 °FPartly cloudy.6 mph93%29.27 "HgN/A
7:20 PM37 °FPartly cloudy.6 mph93%29.27 "HgN/A
6:50 PM37 °FPassing clouds.7 mph93%29.27 "HgN/A
6:20 PM37 °FPassing clouds.8 mph93%29.27 "HgN/A
5:50 PM37 °FPartly cloudy.9 mph93%29.24 "HgN/A
5:20 PM37 °FPartly sunny.8 mph93%29.24 "HgN/A
4:50 PM37 °FPartly sunny.8 mph93%29.21 "HgN/A
4:20 PM37 °FBroken clouds.9 mph93%29.21 "HgN/A
3:20 PM39 °FPartly sunny.12 mph87%29.21 "HgN/A
2:50 PM39 °FBroken clouds.13 mph87%29.18 "HgN/A
2:20 PM39 °FPartly sunny.13 mph93%29.18 "HgN/A
1:50 PM39 °FPartly sunny.13 mph93%29.18 "HgN/A
1:20 PM39 °FPartly sunny.13 mph87%29.18 "HgN/A
12:50 PM41 °FBroken clouds.13 mph87%29.18 "HgN/A
12:20 PM39 °FPartly sunny.10 mph87%29.15 "HgN/A
11:50 AM39 °FPartly sunny.10 mph87%29.15 "HgN/A
11:20 AM39 °FPartly sunny.14 mph87%29.15 "HgN/A
10:50 AM39 °FScattered clouds.13 mph93%29.15 "HgN/A
10:20 AM39 °FPartly sunny.8 mph93%29.15 "HgN/A
9:50 AM37 °FPartly sunny.8 mph93%29.15 "HgN/A
9:20 AM39 °FPartly sunny.13 mph93%29.12 "Hg4 mi
8:50 AM39 °FDrizzle. Low clouds.13 mph93%29.12 "Hg4 mi
8:20 AM39 °FBroken clouds.10 mph93%29.12 "Hg5 mi
Weather by CustomWeather, © 2015

See weather overviewHow to use our weather pages